Location: Saratoga Springs
(43.0831°N, 73.7850°W)
Time: 03:10:11
(UTC-04:00)

Vanguard 1 Rocket - Pass Details

Date: 13 April 2024
Orbit: 651 x 4220 km, 34.3° (Epoch: 17 May)

Event Time Altitude Azimuth Distance (km) Brightness Sun altitude
Rises 02:31:22 0° 275° (W) 5,407 11.2 -33.3°
Enters shadow 02:32:14 - 274° (W) 5,235 11.1 -33.2°
Reaches altitude 10° 02:34:36 10° 268° (W) 4,808 - -33.0°
Maximum altitude 02:47:58 40° 206° (SSW) 4,223 - -31.7°
Exits shadow 02:51:43 38° 186° (S) 4,600 10.4 -31.4°
Drops below altitude 10° 03:09:03 10° 147° (SSE) 7,348 11.8 -29.5°
Sets 03:15:45 0° 141° (SE) 8,456 12.2 -28.7°
